Epoch,demod_status_bits,ebno,lock_status,signal_level,viterbi_ber
1664013715,,12.0,0x00c000,-38.3,
1664013716,C;S;V;F,12.1,0x00c000,-38.1,3.78e-6
1664013717,C;S;V;F,12.1,0x00c000,-38.4,4.23e-6
1664013718,C;S;V;F,,0x00c000,-38.0,3.63e-6
1664013719,C;S;V;F,11.8,0x00c000,,4.68e-6
1664013720,C;S;V;F,12.4,0x00c000,-38.0,1.96e-6
1664013721,C;S;V;F,12.3,0x00c000,-38.1,1.96e-6
1664013722,C;S;V;F,12.5,0x00c000,-37.9,1.96e-6
1664013723,C;S;V;F,12.1,0x00c000,-38.1,1.51e-6
1664013724,C;S;V;F,12.1,0x00c000,-38.7,3.32e-6
1664013725,C;S;V;F,12.2,0x00c000,-38.1,3.17e-6
1664013726,C;S;V;F,12.5,0x00c000,-37.7,1.96e-6
1664013727,C;S;V;F,13.0,0x00c000,-37.3,1.21e-6
1664013728,,12.8,0x00c000,-37.5,
1664013729,C;S;V;F,12.6,0x00c000,-37.6,3.03e-7
1664013730,C;S;V;F,12.8,0x00c000,-38.0,9.09e-7
1664013731,C;S;V;F,,0x00c000,-38.0,4.54e-7
1664013732,C;S;V;F,12.3,0x00c000,,1.05e-6
1664013733,C;S;V;F,12.3,0x00c000,-37.9,2.26e-6
1664013734,C;S;V;F,12.7,0x00c000,-37.5,1.05e-6
1664013735,C;S;V;F,12.8,0x00c000,-38.0,6.06e-7
1664013736,C;S;V;F,12.3,0x00c000,-38.2,1.96e-6
1664013737,C;S;V;F,12.3,0x00c000,-37.9,2.42e-6
1664013738,C;S;V;F,12.4,0x00c000,-38.3,1.81e-6
1664013739,C;S;V;F,12.3,0x00c000,-38.0,1.96e-6
1664013740,C;S;V;F,12.0,0x00c000,-38.4,1.81e-6
1664013741,C;S;V;F,12.3,0x00c000,-38.3,3.63e-6
1664013742,C;S;V;F,12.3,0x00c000,-38.0,
1664013743,,12.2,0x00c000,-38.1,2.42e-6
1664013744,C;S;V;F,12.5,0x00c000,-38.3,2.57e-6
1664013745,C;S;V;F,11.9,0x00c000,-38.5,2.11e-6
1664013746,C;S;V;F,,0x00c000,-38.0,2.57e-6
1664013747,C;S;V;F,12.5,0x00c000,,2.26e-6
1664013748,C;S;V;F,12.0,0x00c000,-38.0,1.66e-6
1664013749,C;S;V;F,12.7,0x00c000,-38.0,1.36e-6
1664013750,C;S;V;F,12.4,0x00c000,-38.6,1.66e-6
1664013751,C;S;V;F,11.9,0x00c000,-38.1,3.93e-6
1664013752,C;S;V;F,12.3,0x00c000,-38.0,2.11e-6
1664013753,C;S;V;F,12.4,0x00c000,-38.0,1.36e-6
1664013754,C;S;V;F,12.1,0x00c000,-38.4,
1664013755,,12.8,0x00c000,-38.0,2.72e-6
1664013756,C;S;V;F,12.8,0x00c000,-37.7,3.02e-6
1664013757,C;S;V;F,13.0,0x00c000,-37.6,1.36e-6
1664013758,C;S;V;F,12.7,0x00c000,-37.9,4.54e-7
1664013759,C;S;V;F,,0x00c000,-38.2,3.03e-7
1664013760,C;S;V;F,12.5,0x00c000,,7.57e-7
1664013761,C;S;V;F,12.3,0x00c000,-38.3,1.21e-6
1664013762,C;S;V;F,12.1,0x00c000,-38.7,3.17e-6
1664013763,C;S;V;F,11.7,0x00c000,-38.8,6.20e-6
1664013764,C;S;V;F,12.2,0x00c000,-38.7,4.08e-6
1664013766,,,0x00c000,-38.4,
1664013767,C;S;V;F,12.2,0x00c000,,1.51e-6
1664013768,C;S;V;F,12.2,0x00c000,-38.6,2.42e-6
1664013769,C;S;V;F,11.9,0x00c000,-38.4,4.08e-6
1664013770,C;S;V;F,12.5,0x00c000,-38.4,2.57e-6
1664013771,C;S;V;F,12.4,0x00c000,-38.0,1.36e-6
1664013772,C;S;V;F,12.4,0x00c000,-38.6,1.81e-6
1664013773,,11.8,0x00c000,-38.8,
1664013774,C;S;V;F,11.2,0x00c000,-39.0,5.14e-6
1664013775,C;S;V;F,11.6,0x00c000,-38.9,7.26e-6
1664013776,C;S;V;F,,0x00c000,-38.6,1.33e-5
1664013777,C;S;V;F,12.1,0x00c000,-39.0,8.62e-6
1664013778,C;S;V;F,11.9,0x00c000,,4.68e-6
1664013779,C;S;V;F,11.5,0x00c000,-39.1,8.16e-6
1664013780,C;S;V;F,12.0,0x00c000,-38.7,5.44e-6
1664013781,C;S;V;F,11.9,0x00c000,-38.8,4.38e-6
1664013782,C;S;V;F,11.7,0x00c000,-38.9,6.80e-6
1664013783,C;S;V;F,11.5,0x00c000,-38.9,7.10e-6
1664013784,C;S;V;F,11.4,0x00c000,-39.2,8.62e-6
1664013785,C;S;V;F,11.5,0x00c000,-39.2,1.33e-5
1664013786,,11.1,0x00c000,-39.5,
1664013787,C;S;V;F,10.8,0x00c000,-39.8,1.49e-5
1664013788,C;S;V;F,10.7,0x00c000,-39.9,3.04e-5
1664013789,C;S;V;F,,0x00c000,-39.6,4.04e-5
1664013790,C;S;V;F,10.7,0x00c000,,4.01e-5
1664013791,C;S;V;F,11.0,0x00c000,-39.6,2.82e-5
1664013792,C;S;V;F,11.1,0x00c000,-39.5,2.28e-5
1664013793,C;S;V;F,11.2,0x00c000,-39.6,2.24e-5
1664013794,C;S;V;F,10.8,0x00c000,-39.6,3.25e-5
1664013795,C;S;V;F,11.0,0x00c000,-39.5,2.91e-5
1664013796,C;S;V;F,10.9,0x00c000,-39.7,2.28e-5
1664013797,C;S;V;F,11.1,0x00c000,-39.7,2.67e-5
1664013798,,11.0,0x00c000,-39.4,
1664013799,C;S;V;F,11.3,0x00c000,-39.6,2.27e-5
1664013800,C;S;V;F,11.2,0x00c000,-39.6,1.82e-5
1664013801,C;S;V;F,,0x00c000,-39.3,2.01e-5
1664013802,C;S;V;F,11.4,0x00c000,,1.87e-5
1664013803,C;S;V;F,11.3,0x00c000,-39.4,1.66e-5
1664013804,C;S;V;F,11.6,0x00c000,-39.3,1.43e-5
1664013805,C;S;V;F,11.5,0x00c000,-39.3,1.21e-5
1664013806,C;S;V;F,11.4,0x00c000,-39.2,1.15e-5
1664013807,C;S;V;F,12.0,0x00c000,-38.8,8.31e-6
1664013808,C;S;V;F,11.8,0x00c000,-38.9,5.14e-6
1664013809,C;S;V;F,11.8,0x00c000,-38.8,6.95e-6
1664013810,C;S;V;F,11.8,0x00c000,-39.0,6.50e-6
1664013811,C;S;V;F,11.8,0x00c000,-39.0,5.59e-6
1664013812,C;S;V;F,11.8,0x00c000,-38.7,5.29e-6
1664013813,,12.0,0x00c000,-38.7,
1664013814,C;S;V;F,12.3,0x00c000,-38.6,3.32e-6
1664013815,C;S;V;F,12.3,0x00c000,-38.4,2.72e-6
1664013816,C;S;V;F,,0x00c000,-38.3,3.17e-6
1664013817,C;S;V;F,12.2,0x00c000,,2.11e-6
1664013818,C;S;V;F,12.3,0x00c000,-38.6,1.05e-6
1664013819,C;S;V;F,11.8,0x00c000,-38.8,2.11e-6
1664013820,C;S;V;F,11.9,0x00c000,-38.7,3.02e-6
1664013821,C;S;V;F,12.3,0x00c000,-38.4,3.32e-6
1664013822,C;S;V;F,12.4,0x00c000,-38.5,2.26e-6
1664013823,C;S;V;F,12.6,0x00c000,-38.3,1.21e-6
1664013824,C;S;V;F,12.2,0x00c000,-38.3,1.51e-6
1664013825,C;S;V;F,12.7,0x00c000,-38.0,1.21e-6
1664013826,C;S;V;F,12.7,0x00c000,-37.9,4.54e-7
1664013827,C;S;V;F,13.0,0x00c000,-37.9,
1664013828,,,,,1.51e-7
1664013829,,13.0,0x00c000,-38.1,
1664013830,C;S;V;F,12.8,0x00c000,-38.3,1.51e-7
1664013831,C;S;V;F,,0x00c000,-37.8,6.06e-7
1664013832,C;S;V;F,13.1,0x00c000,,6.06e-7
1664013833,C;S;V;F,13.3,0x00c000,-37.7,0.00e-0
1664013834,C;S;V;F,13.0,0x00c000,-37.8,0.00e-0
1664013835,C;S;V;F,13.1,0x00c000,-37.7,0.00e-0
1664013836,C;S;V;F,13.3,0x00c000,-37.6,3.03e-7
1664013837,C;S;V;F,13.3,0x00c000,-37.4,1.51e-7
1664013841,C;S;V;F,13.5,0x00c000,-37.6,0.00e-0
1664013842,C;S;V;F,13.5,0x00c000,-37.4,0.00e-0
1664013843,C;S;V;F,13.3,0x00c000,-37.5,1.51e-7
1664013844,C;S;V;F,13.5,0x00c000,-37.6,
1664013845,,13.3,0x00c000,-37.6,1.51e-7
1664013846,C;S;V;F,13.5,0x00c000,-37.3,0.00e-0
1664013847,C;S;V;F,13.6,0x00c000,-37.2,0.00e-0
1664013848,C;S;V;F,,0x00c000,-37.2,0.00e-0
1664013849,C;S;V;F,13.4,0x00c000,-37.6,0.00e-0
1664013850,C;S;V;F,13.6,0x00c000,,0.00e-0
1664013851,C;S;V;F,13.4,0x00c000,-37.5,0.00e-0
1664013852,C;S;V;F,13.4,0x00c000,-37.5,0.00e-0
1664013853,C;S;V;F,13.7,0x00c000,-37.2,0.00e-0
1664013854,C;S;V;F,13.8,0x00c000,-37.0,0.00e-0
1664013855,C;S;V;F,13.9,0x00c000,-36.7,0.00e-0
1664013856,C;S;V;F,14.2,0x00c000,-36.9,0.00e-0
1664013857,C;S;V;F,13.6,0x00c000,-37.0,0.00e-0
1664013858,C;S;V;F,13.9,0x00c000,-37.0,0.00e-0
1664013859,,13.9,0x00c000,-36.9,
1664013860,C;S;V;F,14.3,0x00c000,-36.4,0.00e-0
1664013861,C;S;V;F,14.2,0x00c000,-36.4,0.00e-0
1664013862,C;S;V;F,,0x00c000,-36.6,0.00e-0
1664013863,C;S;V;F,14.0,0x00c000,,0.00e-0
1664013864,C;S;V;F,14.0,0x00c000,-36.8,0.00e-0
1664013865,C;S;V;F,14.0,0x00c000,-36.9,0.00e-0
1664013866,C;S;V;F,13.7,0x00c000,-37.1,0.00e-0
1664013867,C;S;V;F,13.6,0x00c000,-37.3,0.00e-0
1664013868,C;S;V;F,13.5,0x00c000,-37.5,0.00e-0
1664013869,C;S;V;F,13.3,0x00c000,-37.5,0.00e-0
1664013870,C;S;V;F,13.7,0x00c000,-37.2,
1664013871,,13.6,0x00c000,-37.5,0.00e-0
1664013872,C;S;V;F,13.5,0x00c000,-37.4,0.00e-0
1664013873,C;S;V;F,13.4,0x00c000,-37.2,0.00e-0
1664013874,C;S;V;F,,0x00c000,-37.2,0.00e-0
1664013875,C;S;V;F,13.8,0x00c000,,0.00e-0
1664013876,C;S;V;F,13.6,0x00c000,-37.4,0.00e-0
1664013877,C;S;V;F,13.7,0x00c000,-37.1,0.00e-0
1664013878,C;S;V;F,13.7,0x00c000,-37.0,0.00e-0
1664013879,C;S;V;F,13.9,0x00c000,-37.2,0.00e-0
1664013880,C;S;V;F,13.5,0x00c000,-37.5,0.00e-0
1664013881,C;S;V;F,13.1,0x00c000,-37.6,0.00e-0
1664013882,C;S;V;F,12.9,0x00c000,-37.8,
1664013883,,12.9,0x00c000,-38.0,1.51e-7
1664013884,C;S;V;F,13.0,0x00c000,-38.0,3.03e-7
1664013885,C;S;V;F,12.8,0x00c000,-38.1,3.03e-7
1664013886,C;S;V;F,,0x00c000,-37.5,3.03e-7
1664013887,C;S;V;F,13.4,0x00c000,,3.03e-7
1664013888,C;S;V;F,13.2,0x00c000,-37.8,0.00e-0
1664013889,C;S;V;F,13.3,0x00c000,-37.9,1.51e-7
1664013890,C;S;V;F,13.0,0x00c000,-37.9,1.51e-7
1664013892,C;S;V;F,13.0,0x00c000,-37.9,
1664013893,,12.9,0x00c000,-37.9,1.51e-7
1664013894,C;S;V;F,12.8,0x00c000,-37.9,1.51e-7
1664013895,C;S;V;F,12.7,0x00c000,-38.1,1.51e-7
1664013896,C;S;V;F,12.9,0x00c000,-37.9,3.03e-7
1664013897,C;S;V;F,,0x00c000,-38.0,3.03e-7
1664013898,C;S;V;F,13.0,0x00c000,,4.54e-7
1664013899,C;S;V;F,12.8,0x00c000,-38.0,3.03e-7
1664013900,C;S;V;F,12.8,0x00c000,-38.3,3.03e-7
1664013901,C;S;V;F,12.6,0x00c000,-38.2,1.05e-6
1664013902,C;S;V;F,12.7,0x00c000,-38.3,9.09e-7
1664013903,C;S;V;F,12.5,0x00c000,-38.7,1.36e-6
1664013904,C;S;V;F,12.2,0x00c000,-38.7,1.66e-6
1664013905,C;S;V;F,12.4,0x00c000,-38.7,2.11e-6
1664013906,,12.2,0x00c000,-38.8,
1664013907,C;S;V;F,12.1,0x00c000,-38.8,2.42e-6
1664013908,C;S;V;F,12.0,0x00c000,-38.8,2.72e-6
1664013909,C;S;V;F,,0x00c000,-38.4,4.23e-6
1664013910,C;S;V;F,12.2,0x00c000,-38.7,2.57e-6
1664013911,C;S;V;F,12.3,0x00c000,,1.51e-6
1664013912,C;S;V;F,12.3,0x00c000,-38.6,1.81e-6
1664013913,C;S;V;F,12.3,0x00c000,-38.8,2.26e-6
1664013914,C;S;V;F,12.0,0x00c000,-38.8,2.72e-6
1664013915,C;S;V;F,12.0,0x00c000,-38.6,3.47e-6
1664013916,C;S;V;F,12.0,0x00c000,-38.9,3.63e-6
1664013917,C;S;V;F,11.8,0x00c000,-38.9,4.08e-6
1664013918,C;S;V;F,12.0,0x00c000,-38.8,3.93e-6
1664013919,C;S;V;F,12.4,0x00c000,-38.4,
1664013920,,12.3,0x00c000,-38.7,1.81e-6
1664013921,C;S;V;F,12.2,0x00c000,-38.7,1.21e-6
1664013922,C;S;V;F,12.3,0x00c000,-38.5,1.51e-6
1664013923,C;S;V;F,,0x00c000,-38.7,2.11e-6
1664013924,C;S;V;F,12.1,0x00c000,,1.66e-6
1664013925,C;S;V;F,11.8,0x00c000,-38.8,3.17e-6
1664013926,C;S;V;F,12.0,0x00c000,-39.0,4.08e-6
1664013927,C;S;V;F,12.2,0x00c000,-38.5,3.02e-6
1664013928,C;S;V;F,12.2,0x00c000,-38.6,2.26e-6
1664013929,C;S;V;F,12.3,0x00c000,-38.7,2.11e-6
1664013930,C;S;V;F,12.1,0x00c000,-38.8,
1664013931,,12.2,0x00c000,-38.8,3.32e-6
1664013932,C;S;V;F,11.7,0x00c000,-39.1,3.47e-6
1664013933,C;S;V;F,11.8,0x00c000,-39.0,4.23e-6
1664013934,C;S;V;F,,0x00c000,-38.5,7.10e-6
1664013935,C;S;V;F,12.2,0x00c000,,6.65e-6
1664013936,C;S;V;F,12.4,0x00c000,-38.6,2.26e-6
1664013937,C;S;V;F,12.0,0x00c000,-38.8,2.11e-6
1664013938,C;S;V;F,11.8,0x00c000,-38.6,3.47e-6
1664013939,C;S;V;F,12.4,0x00c000,-38.6,3.17e-6
1664013940,C;S;V;F,12.4,0x00c000,-38.5,
1664013941,,12.5,0x00c000,-38.3,2.42e-6
1664013942,C;S;V;F,12.3,0x00c000,-38.4,1.36e-6
1664013943,C;S;V;F,,0x00c000,,1.05e-6
1664013944,C;S;V;F,12.2,0x00c000,-38.6,1.81e-6
1664013945,C;S;V;F,12.4,0x00c000,-38.5,1.96e-6
1664013946,C;S;V;F,12.4,0x00c000,-38.5,2.11e-6
1664013947,C;S;V;F,12.2,0x00c000,-38.5,1.81e-6
1664013948,C;S;V;F,12.0,0x00c000,-38.7,2.11e-6
1664013949,C;S;V;F,12.1,0x00c000,-38.8,
1664013950,,11.6,0x00c000,-39.1,3.17e-6
1664013951,C;S;V;F,11.1,0x00c000,-39.2,4.84e-6
1664013952,C;S;V;F,11.8,0x00c000,-38.8,8.77e-6
1664013953,C;S;V;F,,0x00c000,,1.01e-5
1664013955,C;S;V;F,11.9,0x00c000,-39.0,
1664013956,,12.1,0x00c000,-38.7,8.77e-6
1664013957,C;S;V;F,12.2,0x00c000,-38.7,5.29e-6
1664013958,C;S;V;F,12.0,0x00c000,-38.7,3.02e-6
1664013959,C;S;V;F,,0x00c000,-38.7,3.63e-6
1664013960,C;S;V;F,12.1,0x00c000,-38.5,3.78e-6
1664013961,C;S;V;F,12.3,0x00c000,,3.17e-6
1664013962,C;S;V;F,11.9,0x00c000,-38.8,3.02e-6
1664013963,C;S;V;F,11.7,0x00c000,-38.9,7.10e-6
1664013964,C;S;V;F,11.7,0x00c000,-39.1,7.10e-6
1664013965,C;S;V;F,11.6,0x00c000,-39.2,9.99e-6
1664013966,C;S;V;F,11.2,0x00c000,-39.2,1.15e-5
1664013967,C;S;V;F,11.6,0x00c000,-39.5,1.12e-5
1664013968,C;S;V;F,11.3,0x00c000,-39.7,
1664013969,,11.0,0x00c000,-39.6,2.21e-5
1664013970,C;S;V;F,11.3,0x00c000,-39.4,2.97e-5
1664013971,C;S;V;F,11.8,0x00c000,-39.2,2.43e-5
1664013972,C;S;V;F,,0x00c000,,1.45e-5
1664013973,C;S;V;F,11.8,0x00c000,-38.9,9.22e-6
1664013974,C;S;V;F,12.0,0x00c000,-38.7,5.14e-6
1664013975,C;S;V;F,12.1,0x00c000,-38.8,4.53e-6
1664013976,C;S;V;F,12.2,0x00c000,-38.6,3.63e-6
1664013977,C;S;V;F,12.7,0x00c000,-38.2,1.96e-6
1664013978,C;S;V;F,12.4,0x00c000,-38.3,1.51e-6
1664013979,C;S;V;F,12.5,0x00c000,-38.3,1.36e-6
1664013980,C;S;V;F,12.5,0x00c000,-38.4,1.36e-6
1664013981,C;S;V;F,12.5,0x00c000,-38.6,
1664013982,,11.9,0x00c000,-38.7,1.21e-6
1664013983,C;S;V;F,11.8,0x00c000,-38.8,2.11e-6
1664013984,C;S;V;F,11.8,0x00c000,-38.8,3.17e-6
1664013985,C;S;V;F,,0x00c000,-38.6,6.80e-6
1664013986,C;S;V;F,12.3,0x00c000,,4.99e-6
1664013987,C;S;V;F,12.2,0x00c000,-38.4,1.66e-6
1664013988,C;S;V;F,12.2,0x00c000,-38.8,2.72e-6
1664013989,C;S;V;F,11.6,0x00c000,-39.2,9.52e-6
1664013990,C;S;V;F,12.2,0x00c000,-38.6,8.16e-6
1664013991,C;S;V;F,12.4,0x00c000,-38.2,3.47e-6
1664013992,C;S;V;F,12.5,0x00c000,-38.3,2.11e-6
1664013993,C;S;V;F,12.1,0x00c000,-38.6,
1664013994,,13.1,0x00c000,-37.6,2.57e-6
1664013995,C;S;V;F,13.3,0x00c000,-37.6,2.57e-6
1664013996,C;S;V;F,,0x00c000,-37.9,1.51e-7
1664013997,C;S;V;F,12.9,0x00c000,,3.03e-7
1664013998,C;S;V;F,12.9,0x00c000,-37.7,4.54e-7
1664013999,C;S;V;F,13.4,0x00c000,-37.4,3.03e-7
1664014000,C;S;V;F,13.4,0x00c000,-37.7,1.51e-7
1664014001,C;S;V;F,13.1,0x00c000,-37.9,4.54e-7
1664014002,,0.0,0xc0504d,-38.1,
1664014003,-;-;-;-,,,,-1e-7
